STARLINK-35686

Last updated on Wed Dec 10 2025 00:02:05 GMT+0000 (Coordinated Universal Time)

1 66407U 25257AD 25343.66668981 -.02013194 00000+0 -48985-1 0 9997 2 66407 53.1582 278.4732 0000995 105.5240 263.1126 15.43890994 6001
UTC large
Height (km)
Speed (km/s)
/
Latitude / Longitude
Inclination (degrees)
Orbital Period (minutes)
Azimuth
Elevation
Range (km)
Doppler Factor

Next 0 passes for location: London (51.5072 / 0.1276)

Sorry there are no passes over London.